{"data":{"norad_id":81279,"intl_designator":"","name":"UNKNOWN","alt_names":[],"object_type":"UNKNOWN","status":"UNKNOWN","operator":null,"country":null,"launch_date":null,"launch_site_code":null,"launch_vehicle":null,"mission":null,"orbit_class":"UNKNOWN","rcs_meters":null,"size_class":null,"mass_kg":null,"dimensions":null,"purposes":[],"wikipedia_slug":null,"has_3d_model":false,"image_url":null,"decayed_at":null,"tle_current":{"epoch":"2026-09-16T21:46:12.548352Z","epoch_age_seconds":325169,"freshness":"STALE","line1":"1 81279U          26259.90708968  .00000625  00000+0  25186-3 0  9995","line2":"2 81279  98.0959 301.5863 0204722 289.1803  68.7320 14.20538346502080","mean_motion":14.20538346,"eccentricity":0.0204722,"inclination_deg":98.0959,"raan_deg":301.5863,"arg_perigee_deg":289.1803,"mean_anomaly_deg":68.732,"bstar":0.00025186,"rev_number":50208,"period_min":101.37001961649,"perigee_km":676.09870082621,"apogee_km":970.9667466631,"semimajor_km":7201.6697237447,"source":"CELESTRAK","updated_at":"2026-09-20T09:00:32.385001Z"}}}